TimeEDT,TemperatureF,Dew PointF,Humidity,Sea Level PressureIn,VisibilityMPH,Wind Direction,Wind SpeedMPH,Gust SpeedMPH,PrecipitationIn,Events,Conditions,WindDirDegrees,DateUTC
12:53 AM,53.1,39.0,59,29.76,10.0,West,4.6,-,N/A,,Overcast,260,2013-11-02 04:53:00
1:53 AM,52.0,39.0,61,29.78,10.0,West,5.8,-,N/A,,Overcast,280,2013-11-02 05:53:00
2:53 AM,51.1,39.9,66,29.78,10.0,West,4.6,-,N/A,,Overcast,260,2013-11-02 06:53:00
3:53 AM,50.0,41.0,71,29.78,10.0,West,4.6,-,N/A,,Overcast,270,2013-11-02 07:53:00
4:53 AM,50.0,41.0,71,29.78,10.0,West,3.5,-,N/A,,Overcast,270,2013-11-02 08:53:00
5:53 AM,48.9,41.0,74,29.80,10.0,West,4.6,-,N/A,,Mostly Cloudy,260,2013-11-02 09:53:00
6:53 AM,48.9,39.9,71,29.81,10.0,WNW,10.4,-,N/A,,Overcast,290,2013-11-02 10:53:00
7:53 AM,46.0,39.9,79,29.83,10.0,West,4.6,-,N/A,,Clear,270,2013-11-02 11:53:00
8:53 AM,46.9,39.9,77,29.86,10.0,West,5.8,-,N/A,,Overcast,260,2013-11-02 12:53:00
9:01 AM,46.4,41.0,81,29.85,10.0,West,4.6,-,N/A,,Overcast,260,2013-11-02 13:01:00
9:33 AM,48.2,41.0,76,29.86,10.0,Variable,4.6,-,N/A,,Overcast,0,2013-11-02 13:33:00
9:53 AM,48.9,42.1,77,29.87,10.0,Variable,4.6,-,N/A,,Overcast,0,2013-11-02 13:53:00
10:53 AM,51.1,42.1,71,29.88,9.0,Variable,5.8,-,N/A,,Mostly Cloudy,0,2013-11-02 14:53:00
11:53 AM,53.1,42.1,66,29.89,10.0,Variable,6.9,-,N/A,,Mostly Cloudy,0,2013-11-02 15:53:00
12:21 PM,53.6,41.0,62,29.89,10.0,Variable,5.8,-,N/A,,Mostly Cloudy,0,2013-11-02 16:21:00
12:53 PM,54.0,39.9,59,29.90,10.0,NW,8.1,16.1,N/A,,Overcast,310,2013-11-02 16:53:00
1:53 PM,55.9,37.9,51,29.89,10.0,West,9.2,17.3,N/A,,Mostly Cloudy,270,2013-11-02 17:53:00
2:53 PM,54.0,39.0,57,29.91,10.0,WNW,15.0,-,N/A,,Overcast,300,2013-11-02 18:53:00
3:53 PM,54.0,36.0,51,29.92,10.0,West,8.1,-,N/A,,Clear,280,2013-11-02 19:53:00
4:53 PM,53.1,36.0,52,29.94,10.0,NW,12.7,-,N/A,,Partly Cloudy,310,2013-11-02 20:53:00
5:53 PM,52.0,34.0,50,29.96,10.0,West,5.8,-,N/A,,Clear,270,2013-11-02 21:53:00
6:53 PM,48.9,34.0,56,29.99,10.0,WNW,10.4,-,N/A,,Partly Cloudy,300,2013-11-02 22:53:00
7:53 PM,48.0,35.1,61,30.03,10.0,WNW,10.4,-,N/A,,Clear,300,2013-11-02 23:53:00
8:53 PM,45.0,36.0,71,30.05,10.0,WNW,3.5,-,N/A,,Scattered Clouds,290,2013-11-03 00:53:00
9:53 PM,44.1,37.0,76,30.07,10.0,Calm,Calm,-,N/A,,Mostly Cloudy,0,2013-11-03 01:53:00
10:53 PM,46.9,39.0,74,30.10,10.0,NW,10.4,-,N/A,,Overcast,320,2013-11-03 02:53:00
11:53 PM,46.9,39.0,74,30.12,10.0,NW,5.8,-,0.00,Rain,Light Rain,310,2013-11-03 03:53:00